Weather Roundup
Issued by NWS Corpus Christi, TX

Home | Current Version | Previous Version | Text Only | Print | Product List | Glossary On
Versions: 1 2 3 4 5 6 7 8 9 10 11 12 13 14 15 16 17 18 19 20 21 22 23 24 25 26 27 28 29 30 31 32 33 34 35 36 37 38 39 40 41 42 43 44 45 46 47 48 49 50
000
ASUS44 KCRP 291810
HRRCRP

SOUTH TEXAS REGIONAL WEATHER ROUNDUP
NATIONAL WEATHER SERVICE CORPUS CHRISTI TX
100 PM CDT SAT AUG 29 2015


TXZ229>244-291900-
...CORPUS CHRISTI AREA OBSERVATIONS...

CITY           SKY/WX    TMP DP  RH WIND       PRES   REMARKS
CORPUS CHRISTI MOSUNNY   90  65  43 N12       30.01F HX  92
NAS CORPUS CHR MOSUNNY   88  66  48 SE8       30.02F HX  90
ROCKPORT       SUNNY     89  67  47 SE6       30.02F HX  92
KINGSVILLE NAS SUNNY     93  64  38 VRB7      30.01F HX  94
ALICE          SUNNY     91  60  35 NE9       30.01F HX  90
FALFURRIAS     SUNNY     90  58  33 E7        30.00F
$$

...VICTORIA AREA OBSERVATIONS...

CITY           SKY/WX    TMP DP  RH WIND       PRES   REMARKS
VICTORIA       SUNNY     88  66  48 CALM      30.03F HX  90
BEEVILLE       FAIR      88  65  46 S5        30.03F HX  90
PLEASANTON     SUNNY     88  61  40 NE3       30.05F
SAN ANTONIO    MOSUNNY   87  64  46 VRB6      30.06F
$$

...LAREDO AREA OBSERVATIONS...

CITY           SKY/WX    TMP DP  RH WIND       PRES   REMARKS
LAREDO         SUNNY     91  63  39 CALM      30.03F HX  92
COTULLA        SUNNY     90  60  36 MISG      30.03F
DEL RIO        MOSUNNY   89  65  44 SE8       30.03F HX  91
MCALLEN        MOSUNNY   93  66  40 VRB6      30.00F HX  96
HEBBRONVILLE   NOT AVBL
$$

...OTHER TEXAS OBSERVATIONS...

CITY           SKY/WX    TMP DP  RH WIND       PRES   REMARKS
BROWNSVILLE    MOSUNNY   91  66  43 VRB3      30.00F HX  93
HOUSTON        MOSUNNY   87  63  44 E5        30.04F
COL. STATION   SUNNY     87  64  46 SW7       30.05F
AUSTIN         PTSUNNY   87  63  44 S3        30.04F
WACO           MOSUNNY   91  64  40 S16       30.03F HX  92
FORT WORTH     PTSUNNY   92  63  38 SW10      29.99F HX  93
WICHITA FALLS  PTSUNNY   93  59  31 NE7       29.98F HX  92
LUBBOCK        CLOUDY    77  65  66 E3        30.19S
EL PASO        MOSUNNY   85  55  35 N3        30.18F
$$

...MARINE OBSERVATIONS...

STATION/POSITION TIME  SKY/WX   TEMP    WIND        PRES    VSBY  WAVE   SWELL
                                AIR SEA DIR/SP/G                  HT/PER HT/PER
                 (UTC)          (F)     (DEG/KT/KT) (MB)    (MI)  (FT/S) (FT/S)
PORT ARANSAS     1800            83 85  110/  2/  3 1018.0F
BUOY 90 E PORT A 1750            84 86  110/  6/ 12 1017.1F         1/ 3
BUOY 45 SE BAFFI 1750            83 85  170/  2/  4 1016.6F         1/ 5   2/ 5
BUOY 200 E PT IS 1750            85 87   90/  4/  6 1017.2F         1/ 3
BUOY 15 E GALVES 1750            85 86   CALM  /  2 1017.4F         1
$$



USA.gov is the U.S. government's official web portal to all federal, state and local government web resources and services.